Location: Newark
(46.7636°N, 1.8358°W)
Time: 02:38:24
(UTC+00:00)

Tiros 1 - Pass Details

Date: 29 October 2019
Orbit: 630 x 664 km, 48.4° (Epoch: 19 November)

Event Time Altitude Azimuth Distance (km) Brightness Sun altitude
Exits shadow 05:37:42 11° 242° (WSW) 2,004 9.2 -12.0°
Maximum altitude 05:38:51 12° 227° (SW) 1,947 9.2 -11.8°
Drops below altitude 10° 05:40:38 10° 205° (SSW) 2,075 9.6 -11.5°
Sets 05:44:27 0° 175° (S) 2,980 10.7 -10.8°
